Content
SEND FEEDBACK

Daily
Averages
Monthly
Summary
United States of America

CORNING, IOWA


Home > North America > United States > Iowa
Elevation: 1189 feet     Latitude: 41 00N     Longitude: 094 45W

WEATHER
 
SELECT A DAY
Number of Records: 417,654;   Date Range: 4/23/95 - 9/21/14
 
SHARE

PRINT THIS DATA

[ ← Previous Day ]
WEATHER ALMANAC - FEBRUARY 13, 2013
[ Next Day → ]
[ °C ]   °F
Weather ElementAverageHighLow
Temperature35.7 °F48.2 °F (1:35 pm)23 °F (4:15 am)
Dewpoint23.8 °F26.6 °F (9:15 am)17.6 °F (4:15 am)
Humidity64.2 %86 % (4:35 am)34 % (3:35 pm)
Barometer28.93 in29.88 in (12:35 am) (7:00 pm)
Wind Speed8.5 mph16.1 mph (2:35 pm)
Wind Gust19.6 mph (2:35 pm)
Weather ElementAverage
Visibility10 mi
Wind DirectionWSW (258.3 °)

Weather ElementTotal
Precipitation---
Heating Degree Days29.4 (Base 65)
Averaged from 69 records on February 13, 2013
WEATHER CONDITIONS BREAKOUT
WIND DIRECTION BREAKOUT
WEATHER BY HOUR - FEBRUARY 13, 2013
[ °C ]   °F
Local TimeTemperatureDewpointHumidityBarometerVisibilityWind DirectionWind SpeedGust SpeedPrecipitationEventsConditions
12:35 AM28.4 °F21.2 °F74 %29.88 in10.0 miWest (270°)4.6 mphClear
12:55 AM28.4 °F21.2 °F74 %29.88 in10.0 miWest (270°)4.6 mphClear
1:15 AM26.6 °F21.2 °F80 %29.88 in10.0 miWNW (290°)5.8 mphClear
1:35 AM28.4 °F21.2 °F74 %29.87 in10.0 miWest (280°)4.6 mphClear
1:55 AM28.4 °F21.2 °F74 %29.86 in10.0 miWNW (290°)4.6 mphClear
2:15 AM26.6 °F19.4 °F74 %29.86 in10.0 miWNW (290°)5.8 mphClear
2:35 AM26.6 °F21.2 °F80 %29.86 in10.0 miWNW (300°)4.6 mphClear
2:55 AM26.6 °F19.4 °F74 %29.86 in10.0 miWNW (290°)4.6 mphClear
3:15 AM26.6 °F19.4 °F74 %29.86 in10.0 miWest (280°)5.8 mphClear
3:35 AM26.6 °F19.4 °F74 %29.86 in10.0 miWest (280°)6.9 mphClear
3:55 AM24.8 °F19.4 °F80 %29.84 in10.0 miWest (270°)5.8 mphClear
4:15 AM23.0 °F17.6 °F80 %29.84 in10.0 miWest (280°)3.5 mphClear
4:35 AM23.0 °F19.4 °F86 %29.83 in10.0 miWest (280°)6.9 mphClear
4:55 AM23.0 °F17.6 °F80 %29.83 in10.0 miWest (280°)5.8 mphClear
5:15 AM23.0 °F19.4 °F86 %29.83 in10.0 miWNW (290°)8.1 mphClear
5:35 AM24.8 °F19.4 °F80 %29.83 in10.0 miWNW (290°)5.8 mphClear
6:15 AM24.8 °F19.4 °F80 %29.82 in10.0 miWest (270°)6.9 mphClear
6:35 AM24.8 °F19.4 °F80 %10.0 miWest (280°)8.1 mphClear
6:55 AM24.8 °F19.4 °F80 %29.82 in10.0 miWest (280°)8.1 mphClear
7:15 AM24.8 °F19.4 °F80 %10.0 miWest (270°)6.9 mphClear
7:35 AM24.8 °F19.4 °F80 %29.82 in10.0 miWest (270°)5.8 mphClear
7:55 AM26.6 °F21.2 °F80 %29.82 in10.0 miWest (270°)5.8 mphClear
8:15 AM28.4 °F21.2 °F74 %29.83 in10.0 miWest (270°)9.2 mphClear
8:35 AM30.2 °F24.8 °F80 %29.83 in10.0 miWest (280°)10.4 mphClear
8:55 AM32.0 °F24.8 °F75 %29.84 in10.0 miWest (270°)9.2 mphClear
9:15 AM33.8 °F26.6 °F75 %29.84 in10.0 miWest (270°)10.4 mphClear
9:35 AM35.6 °F26.6 °F70 %29.83 in10.0 miWNW (290°)13.8 mphClear
9:55 AM35.6 °F26.6 °F70 %29.84 in10.0 miWest (270°)15.0 mphClear
10:15 AM37.4 °F26.6 °F65 %29.84 in10.0 miWest (270°)11.5 mphClear
10:35 AM39.2 °F26.6 °F61 %29.84 in10.0 miWest (280°)9.2 mphClear
10:55 AM39.2 °F26.6 °F61 %29.84 in10.0 miWest (260°)9.2 mphClear
11:15 AM39.2 °F26.6 °F61 %29.83 in10.0 miWest (270°)9.2 mphClear
11:35 AM42.8 °F26.6 °F53 %29.83 in10.0 miWSW (250°)10.4 mphClear
11:55 AM44.6 °F26.6 °F49 %29.82 in10.0 miWSW (250°)10.4 mphClear
12:15 PM44.6 °F24.8 °F46 %29.81 in10.0 miWSW (250°)12.7 mphClear
12:35 PM46.4 °F24.8 °F43 %29.80 in10.0 miWest (260°)11.5 mph16.1 mphClear
12:55 PM46.4 °F24.8 °F43 %29.79 in10.0 miWSW (250°)11.5 mphClear
1:15 PM46.4 °F24.8 °F43 %29.78 in10.0 miWSW (250°)12.7 mphClear
1:35 PM48.2 °F26.6 °F43 %29.78 in10.0 miWSW (240°)13.8 mphClear
1:55 PM48.2 °F24.8 °F40 %29.77 in10.0 miWest (260°)12.7 mph18.4 mphClear
2:15 PM48.2 °F24.8 °F40 %29.77 in10.0 miWSW (250°)15.0 mph18.4 mphClear
2:35 PM48.2 °F23.0 °F37 %29.77 in10.0 miWSW (250°)16.1 mph19.6 mphClear
2:55 PM48.2 °F24.8 °F40 %29.76 in10.0 miWSW (250°)13.8 mph19.6 mphClear
3:15 PM48.2 °F24.8 °F40 %29.76 in10.0 miWSW (250°)12.7 mphClear
3:35 PM48.2 °F21.2 °F34 %29.76 in10.0 miWSW (240°)12.7 mphClear
4:15 PM48.2 °F21.2 °F34 %29.75 in10.0 miWSW (240°)10.4 mph
4:35 PM48.2 °F23.0 °F37 %29.75 in10.0 miWSW (240°)10.4 mphClear
4:55 PM48.2 °F24.8 °F40 %29.74 in10.0 miWSW (240°)8.1 mphClear
5:15 PM46.4 °F24.8 °F43 %29.74 in10.0 miSW (230°)8.1 mphClear
5:35 PM41.0 °F26.6 °F57 %29.74 in10.0 miSW (220°)6.9 mphClear
5:55 PM41.0 °F26.6 °F57 %29.74 in10.0 miWSW (240°)3.5 mphClear
6:15 PM41.0 °F26.6 °F57 %29.74 in10.0 miSW (230°)4.6 mphScattered Clouds
6:35 PM39.2 °F26.6 °F61 %29.75 in10.0 miSW (230°)6.9 mphScattered Clouds
6:55 PM39.2 °F26.6 °F61 %29.75 in10.0 miSSW (210°)6.9 mphScattered Clouds
7:15 PM39.2 °F26.6 °F61 %29.74 in10.0 miSSW (200°)6.9 mphScattered Clouds
7:35 PM39.2 °F26.6 °F61 %29.73 in10.0 miSW (220°)6.9 mphScattered Clouds
7:55 PM39.2 °F26.6 °F61 %29.74 in10.0 miSW (220°)6.9 mphScattered Clouds
8:15 PM37.4 °F26.6 °F65 %29.73 in10.0 miSW (220°)6.9 mphScattered Clouds
8:35 PM37.4 °F26.6 °F65 %29.73 in10.0 miSW (230°)5.8 mphScattered Clouds
8:55 PM39.2 °F26.6 °F61 %29.72 in10.0 miSW (230°)9.2 mphClear
9:15 PM39.2 °F26.6 °F61 %29.72 in10.0 miWSW (240°)8.1 mphClear
9:35 PM35.6 °F26.6 °F70 %29.73 in10.0 miWSW (240°)8.1 mphClear
9:55 PM35.6 °F26.6 °F70 %29.73 in10.0 miWSW (250°)9.2 mphClear
10:15 PM33.8 °F26.6 °F75 %29.73 in10.0 miWest (260°)6.9 mphClear
10:35 PM33.8 °F26.6 °F75 %29.73 in10.0 miWSW (250°)5.8 mphClear
10:55 PM33.8 °F26.6 °F75 %29.73 in10.0 miWest (260°)8.1 mphClear
11:15 PM33.8 °F26.6 °F75 %29.73 in10.0 miWSW (250°)8.1 mphScattered Clouds
11:35 PM35.6 °F26.6 °F70 %29.73 in10.0 miWest (260°)11.5 mphScattered Clouds
11:55 PM35.6 °F26.6 °F70 %29.74 in10.0 miWest (260°)9.2 mphClear
Hourly data recorded from KCSQ, located miles away from Corning, Iowa







STORIES FROM OUR PARTNERS